Dewpoint
52 48 48 44 30 29 22 24 26 27 24 26 27 28 26 29 22 22 48 56 58 56 65 69 71 72 72 71 71 70 70 71 70 69 68 67 66 65 67 69 69 68 67 66 65 64 63 64 63
44 44 45 40 24 16 11 23 27 27 26 28 27 29 27 24 31 36 47 56 58 57 65 67 70 72 72 71 71 70 70 70 69 69 68 67 66 64 64 66 67 66 65 64 64 63 61 60 58
41 40 36 31 27 14 16 23 23 23 26 28 28 30 29 27 31 39 49 56 58 58 63 66 70 71 72 72 71 71 71 71 70 69 67 66 65 63 63 64 64 63 63 62 60 59 58 56 56
41 38 34 24 20 23 22 20 25 26 26 28 27 24 27 32 35 42 52 57 58 59 62 66 70 71 71 71 71 71 71 71 70 67 66 65 65 63 62 63 63 63 62 60 57 56 56 54 54
39 34 25 24 21 22 24 24 25 23 23 25 26 22 24 29 38 44 54 57 59 59 63 65 69 70 70 71 71 71 71 69 68 66 65 66 65 63 61 62 62 61 59 56 55 56 53 53 52
31 33 21 16 17 21 24 25 25 24 23 24 25 25 25 32 36 42 53 57 59 59 63 65 66 68 69 70 70 70 69 68 66 64 63 65 64 62 60 60 59 58 55 54 55 53 52 51 50
27 26 18 21 21 24 23 24 23 22 23 23 25 23 24 27 34 44 51 56 59 60 63 64 65 65 65 66 67 68 68 67 66 65 64 64 63 60 58 58 57 56 55 55 54 53 51 50 48
35 30 26 25 18 17 22 23 24 22 19 26 26 21 19 29 40 48 53 56 58 60 62 63 64 64 64 63 64 64 65 66 65 63 62 62 61 60 59 58 57 55 55 53 52 51 49 48 46
33 25 22 20 21 14 22 21 22 22 22 24 26 26 26 36 44 48 52 55 57 58 60 62 63 63 62 62 62 63 63 64 63 63 61 58 56 54 54 55 58 56 53 52 51 49 48 45 43
31 27 20 21 19 17 20 22 22 22 21 23 24 26 29 36 41 42 46 48 53 55 57 59 60 61 62 61 62 63 63 63 62 62 60 57 54 53 51 53 57 57 54 50 49 46 42 32 27
34 25 24 21 18 20 21 23 24 23 22 22 22 22 26 31 35 38 40 42 47 51 54 56 58 59 60 61 61 61 62 61 61 60 58 55 52 52 51 51 52 52 50 45 43 38 27 29 27
30 31 29 28 27 27 26 26 25 25 23 22 23 26 26 27 29 33 37 39 43 48 51 54 55 57 59 60 60 60 60 60 59 58 56 53 51 51 49 50 50 50 46 44 37 32 33 30 29
32 29 30 31 31 29 29 29 28 26 25 25 26 28 27 26 27 29 33 38 41 45 48 52 54 55 56 58 57 58 58 58 57 55 53 51 49 49 47 48 47 45 43 38 31 31 29 30 27
27 30 28 28 28 29 27 23 25 21 22 23 22 24 24 26 26 27 30 33 38 42 45 48 52 54 54 56 56 56 56 56 56 53 52 50 47 46 44 45 44 40 36 31 29 28 28 28 29
27 25 23 21 24 24 28 23 24 21 21 22 18 17 19 22 24 25 27 30 33 38 41 45 49 52 53 54 55 55 54 54 54 53 51 49 45 42 41 42 40 34 31 31 30 28 27 26 24
22 22 18 16 24 23 25 14 15 15 16 16 15 15 17 18 19 21 25 27 30 34 36 40 45 49 51 52 53 53 53 52 51 51 49 47 44 40 39 39 36 30 29 28 27 25 24 24 23
22 15 17 18 21 20 26 17 17 19 18 17 17 17 17 18 19 21 23 27 28 29 32 36 41 45 48 51 51 52 52 51 50 49 48 46 44 40 36 36 34 31 28 26 25 25 24 24 23
15 17 17 17 15 19 19 20 19 18 18 18 17 15 17 18 19 21 24 26 27 29 31 33 36 42 45 48 50 50 50 50 49 48 47 45 42 39 36 34 34 31 28 27 27 26 25 24 23
17 16 15 16 17 18 17 16 16 18 18 17 17 17 18 20 21 23 26 28 29 31 32 32 33 36 41 44 46 48 48 48 47 47 46 44 42 39 38 35 33 30 29 29 27 26 26 25 24
20 19 18 19 19 19 17 17 17 18 19 19 19 19 20 20 21 22 24 27 28 29 31 33 33 33 37 41 44 44 44 44 45 45 45 44 42 39 37 35 34 31 29 29 28 28 25 24 24
19 19 17 17 19 19 19 16 19 17 20 20 20 22 21 21 20 22 25 26 29 30 32 31 32 33 33 39 40 41 38 40 40 42 42 42 41 40 36 35 34 33 31 30 31 29 28 25 24
19 20 20 20 19 13 19 13 18 17 17 19 21 20 19 22 25 25 26 27 29 31 33 33 33 32 32 35 38 39 35 35 35 37 39 40 40 38 36 36 35 33 32 31 33 30 29 29 24
21 22 20 21 20 20 17 16 18 16 16 16 19 20 22 25 26 25 27 29 29 31 32 33 33 32 31 33 35 37 37 36 35 34 38 39 38 38 36 35 34 34 31 33 32 31 31 29 27
22 20 21 22 20 18 18 17 17 15 15 16 20 20 25 26 27 28 29 31 32 33 32 31 30 30 32 32 33 34 35 35 35 34 35 36 36 35 36 35 34 33 32 32 32 31 31 29 27
22 18 20 23 22 21 17 21 17 20 17 18 19 26 29 29 29 28 28 29 31 33 33 31 31 29 29 31 32 33 33 34 34 34 34 34 34 34 33 34 34 32 31 32 31 31 29 29 27
23 26 31 26 25 25 29 26 24 23 21 26 29 30 30 30 30 29 29 29 29 30 30 31 30 29 29 29 29 30 31 32 32 32 32 32 33 33 33 33 33 32 31 29 30 29 28 28 27
28 23 26 28 32 29 26 26 26 25 24 29 30 30 28 28 28 29 29 29 29 29 29 28 29 29 28 28 29 29 29 30 30 32 32 31 32 31 33 32 32 32 31 29 28 27 27 27 27
23 23 23 28 24 24 24 22 20 22 24 29 29 28 25 25 25 26 27 28 27 26 27 27 27 26 27 28 29 29 29 29 29 29 31 31 31 31 31 32 31 31 30 29 28 27 26 26 25
21 25 31 32 32 25 22 19 20 25 30 30 27 24 22 21 20 22 24 27 27 24 23 24 25 25 25 26 27 28 29 29 29 29 29 30 31 31 31 31 31 31 29 28 27 26 25 24 23
28 29 29 26 23 21 21 20 30 30 29 26 22 21 22 18 15 14 20 26 27 20 19 20 22 23 24 24 26 26 27 28 28 28 28 29 29 30 30 30 30 30 29 27 26 25 22 22 22
Lifted_Index
8 8 7 6 5 5 4 5 6 6 6 6 7 6 6 6 6 5 4 3 2 1 -1 -3 -4 -5 -5 -4 -4 -4 -4 -4 -4 -3 -3 -2 -1 -1 -1 -2 -2 -1 -1 1 2 2 3 4 4
8 8 7 6 5 4 4 5 6 6 6 7 7 7 7 6 6 6 4 3 2 1 -1 -3 -4 -4 -4 -4 -4 -4 -4 -4 -4 -3 -2 -2 -1 -0 -0 -1 -1 -0 0 2 3 4 4 5 6
9 8 7 6 5 4 4 6 6 6 7 7 7 7 7 7 7 6 5 3 2 1 -1 -2 -3 -4 -4 -4 -4 -4 -4 -4 -3 -2 -2 -1 -0 0 1 0 0 1 2 3 5 6 7 7 8
8 8 7 5 5 5 5 6 6 6 7 7 7 7 7 7 7 7 5 3 2 1 -0 -2 -3 -4 -4 -4 -4 -4 -4 -3 -2 -1 -1 -0 0 1 2 2 2 2 4 5 6 8 8 9 10
8 7 6 5 5 5 6 7 7 6 7 7 7 7 7 8 8 7 5 3 2 1 -0 -1 -2 -3 -4 -4 -4 -4 -3 -2 -1 -0 0 1 1 2 3 3 3 4 6 7 8 9 10 11 11
8 7 5 4 4 5 6 7 7 6 6 7 7 7 7 8 8 7 5 3 2 1 0 -1 -2 -2 -3 -3 -3 -3 -2 -1 -0 1 1 1 2 4 5 5 5 6 8 8 9 10 11 12 12
8 6 4 4 4 5 6 6 6 6 6 7 7 6 7 8 8 7 5 3 2 1 0 -0 -1 -1 -1 -1 -1 -1 -1 -1 0 1 2 2 3 5 6 7 7 8 9 9 10 11 12 13 14
8 6 4 4 4 4 5 6 6 6 6 6 7 6 7 7 8 7 6 4 3 2 1 0 -0 -0 -0 -0 0 0 0 0 1 2 3 3 5 6 7 8 8 8 9 10 11 12 13 14 15
8 6 4 4 4 5 5 6 6 6 6 5 6 6 7 8 8 7 6 4 3 3 2 1 1 0 1 1 1 1 1 1 2 2 3 5 6 7 8 9 9 9 10 11 12 13 15 16 16
7 5 4 5 5 5 5 6 6 6 5 4 5 6 7 7 7 7 6 5 4 4 3 2 2 1 1 1 1 1 1 2 2 3 4 6 7 9 9 9 9 10 11 13 14 15 16 16 16
6 5 5 6 6 6 6 6 6 5 4 4 5 6 6 6 6 6 6 6 5 4 4 4 3 3 2 2 2 2 2 2 3 4 6 7 9 10 10 10 10 11 13 14 15 16 16 16 16
6 6 6 6 7 6 6 6 5 5 4 5 5 6 6 6 6 6 6 6 6 5 5 5 4 4 3 3 3 3 3 3 4 5 7 9 10 11 11 11 11 13 14 15 16 16 16 17 17
6 6 6 7 7 6 6 5 6 5 5 5 6 6 6 6 6 6 6 7 7 6 6 6 5 5 5 4 4 4 4 4 5 7 8 10 11 12 12 13 13 14 15 16 16 16 16 17 17
7 7 6 6 6 6 6 5 5 5 5 6 6 6 7 7 7 7 7 7 7 7 7 7 7 6 6 5 5 5 5 6 6 8 9 11 12 13 14 14 14 15 16 16 16 16 16 16 17
8 7 6 5 6 7 6 5 5 6 6 6 6 6 6 7 7 7 7 7 8 8 8 8 8 8 7 7 6 6 6 7 7 9 10 11 12 13 14 15 15 16 16 16 16 16 16 16 16
7 6 5 5 6 7 7 6 5 7 7 6 6 6 5 5 6 6 7 8 8 9 9 9 9 9 8 8 7 7 8 8 8 9 10 11 12 13 14 15 15 16 16 16 16 16 16 16 16
5 5 5 5 6 7 8 7 7 8 8 7 6 5 5 5 6 7 8 9 9 9 9 9 9 9 9 9 9 9 9 8 9 9 9 10 11 13 14 15 15 16 16 16 16 16 16 16 16
5 5 5 6 6 7 8 8 8 8 8 7 6 6 5 6 6 7 8 9 9 9 9 9 9 10 10 10 10 9 9 9 9 9 9 9 10 12 13 14 15 16 16 16 16 16 16 16 16
6 6 6 6 6 7 7 8 8 8 7 6 6 6 6 7 7 8 9 9 9 9 9 9 9 10 10 10 10 10 10 9 9 9 9 9 10 11 12 13 14 15 16 16 16 16 16 16 17
6 6 6 6 7 7 7 8 8 8 7 6 6 6 7 8 8 8 9 9 9 9 9 9 9 10 10 10 10 10 10 10 10 10 9 9 10 10 11 12 14 15 16 16 16 16 16 16 16
6 6 6 6 7 7 7 7 7 7 7 6 6 7 7 8 8 9 9 9 9 9 9 9 9 9 10 10 10 11 10 10 10 10 10 10 10 10 11 12 13 15 15 16 16 16 16 16 16
6 6 6 6 6 7 7 6 6 6 6 6 6 7 7 8 8 9 9 9 9 10 10 10 10 10 10 10 10 10 10 10 10 10 10 10 10 11 11 12 13 15 15 16 16 17 17 16 16
6 6 6 6 6 6 5 5 5 6 5 5 6 6 7 7 8 9 9 9 10 10 10 10 10 10 11 11 11 10 10 11 11 11 11 11 11 12 12 12 13 15 16 16 16 17 17 17 17
6 5 5 4 4 4 4 5 5 5 5 5 4 5 5 6 6 8 8 9 9 10 10 10 11 11 11 11 11 11 11 11 11 11 11 12 12 12 12 12 13 14 15 16 16 16 17 17 17
4 3 3 2 2 2 3 4 5 5 5 4 4 4 5 5 6 7 7 8 9 9 10 10 11 11 11 11 11 11 11 11 11 11 12 12 12 12 13 13 13 13 14 15 16 16 16 16 16
2 2 2 1 1 2 3 4 5 5 5 4 4 5 6 6 6 6 7 7 8 9 9 10 10 10 11 11 11 11 11 11 11 12 12 12 12 13 13 14 13 13 14 14 15 15 15 16 16
2 2 2 2 1 2 3 4 5 5 5 4 4 5 5 6 6 6 6 7 7 8 8 9 9 9 10 10 11 11 11 11 11 12 12 12 12 13 14 14 14 14 14 14 14 14 14 15 15
3 2 2 2 1 1 2 4 5 5 5 4 4 4 4 5 6 6 7 7 7 8 7 8 8 8 9 10 10 10 11 11 11 11 11 11 12 12 13 13 14 14 14 14 13 13 14 14 14
2 2 1 1 1 1 2 3 4 5 5 5 5 5 5 6 7 8 8 8 9 8 8 8 8 8 8 9 9 10 10 10 10 10 10 11 11 11 12 12 13 13 13 13 13 13 13 13 12
1 1 1 1 1 2 2 3 4 4 4 5 6 6 7 7 8 9 9 9 9 9 9 8 8 7 8 9 9 9 10 10 10 10 10 10 10 11 11 12 12 12 12 12 12 12 13 12 12